Location: Dos Palmas
(32.4468°N, 116.8732°W)
Time: 13:24:29
(UTC+00:00)

Cosmos 2173 Rocket - Pass Details

Date: 20 June 2021
Orbit: 945 x 1000 km, 83.0° (Epoch: 30 July)

Event Time Altitude Azimuth Distance (km) Brightness Sun altitude
Rises 04:30:35 0° 1° (N) 3,727 7.7 -16.7°
Reaches altitude 10° 04:33:16 10° 8° (N) 2,775 6.8 -17.2°
Maximum altitude 04:39:21 45° 80° (E) 1,330 4.4 -18.1°
Enters shadow 04:42:00 30° 132° (SE) 1,704 4.7 -18.5°
